DEMIK EDHE-EKRN

Flight info

Callsign DEMIK
Flight time 1h 16m
Altitude 13000
Route DCT HAM LUGEG IFR P605 KOSMO L983 ROE DCT
Aircraft BT36/L-BDFGLORY/S

Departure

Time 2026-04-28 15:42
Airport Uetersen-Heist Airfield (EDHE)

Arrival

Time 2026-04-28 16:58
Airport Bornholm Airport (EKRN)
Time Latitude Longitude Altitude Speed Heading
2026-04-28 15:26 53.64515 9.70424 25 ft 0 kts 285°
2026-04-28 15:37 53.64516 9.70419 25 ft 0 kts 284°
2026-04-28 15:38 53.64516 9.70417 25 ft 2 kts 284°
2026-04-28 15:38 53.64526 9.70339 22 ft 11 kts 285°
2026-04-28 15:38 53.64543 9.70182 22 ft 14 kts 275°
2026-04-28 15:38 53.64565 9.70033 22 ft 13 kts 283°
2026-04-28 15:39 53.64583 9.69893 22 ft 12 kts 279°
2026-04-28 15:39 53.64590 9.69760 22 ft 11 kts 283°
2026-04-28 15:39 53.64606 9.69642 22 ft 10 kts 278°
2026-04-28 15:39 53.64623 9.69535 22 ft 9 kts 291°
2026-04-28 15:40 53.64642 9.69492 22 ft 0 kts 337°
2026-04-28 15:41 53.64671 9.69473 22 ft 11 kts
2026-04-28 15:41 53.64677 9.69858 21 ft 73 kts 93°
2026-04-28 15:42 53.64633 9.70931 263 ft 102 kts 90°
2026-04-28 15:42 53.64571 9.72163 560 ft 110 kts 86°
2026-04-28 15:42 53.64548 9.73507 780 ft 120 kts 89°
2026-04-28 15:42 53.64501 9.74918 1124 ft 120 kts 82°
2026-04-28 15:43 53.64703 9.76288 1365 ft 125 kts 56°
2026-04-28 15:43 53.65404 9.77230 1473 ft 139 kts 28°
2026-04-28 15:43 53.66298 9.77890 1713 ft 139 kts 21°
2026-04-28 15:43 53.67211 9.78519 1806 ft 140 kts 34°
2026-04-28 15:44 53.67774 9.79725 1827 ft 130 kts 71°
2026-04-28 15:44 53.67686 9.81237 1704 ft 141 kts 111°
2026-04-28 15:44 53.66929 9.82339 1587 ft 153 kts 151°
2026-04-28 15:44 53.65867 9.82674 1493 ft 160 kts 172°
2026-04-28 15:45 53.64795 9.82907 1441 ft 145 kts 150°
2026-04-28 15:45 53.64065 9.83927 1339 ft 133 kts 122°
2026-04-28 15:45 53.63507 9.85144 1252 ft 129 kts 117°
2026-04-28 15:45 53.63055 9.86380 1209 ft 120 kts 111°
2026-04-28 15:46 53.62644 9.87592 1129 ft 119 kts 115°
2026-04-28 15:46 53.62171 9.88715 1091 ft 116 kts 116°
2026-04-28 15:46 53.61736 9.89815 1062 ft 111 kts 114°
2026-04-28 15:46 53.61362 9.90892 1052 ft 105 kts 110°
2026-04-28 15:47 53.61020 9.91974 1024 ft 103 kts 108°
2026-04-28 15:47 53.60729 9.93055 1035 ft 99 kts 99°
2026-04-28 15:47 53.60585 9.94160 1017 ft 97 kts 88°
2026-04-28 15:47 53.60527 9.95332 980 ft 103 kts 89°
2026-04-28 15:48 53.60414 9.96494 1069 ft 96 kts 90°
2026-04-28 15:48 53.60415 9.97608 1064 ft 95 kts 76°
2026-04-28 15:48 53.60634 9.98575 1098 ft 88 kts 60°
2026-04-28 15:48 53.60916 9.99512 1043 ft 91 kts 57°
2026-04-28 15:49 53.61279 10.00356 1121 ft 87 kts 56°
2026-04-28 15:49 53.61613 10.01199 1242 ft 87 kts 58°
2026-04-28 15:49 53.61941 10.02054 1373 ft 87 kts 58°
2026-04-28 15:49 53.62258 10.02938 1493 ft 88 kts 59°
2026-04-28 15:50 53.62574 10.03823 1622 ft 87 kts 58°
2026-04-28 15:50 53.62875 10.04660 1778 ft 80 kts 57°
2026-04-28 15:50 53.63196 10.05553 2064 ft 98 kts 58°
2026-04-28 15:50 53.63576 10.06600 2346 ft 110 kts 58°
2026-04-28 15:51 53.63982 10.07743 2634 ft 116 kts 58°
2026-04-28 15:51 53.64409 10.08921 2920 ft 121 kts 58°
2026-04-28 15:51 53.64853 10.10165 3190 ft 124 kts 58°
2026-04-28 15:51 53.65301 10.11408 3468 ft 127 kts 58°
2026-04-28 15:52 53.65767 10.12700 3715 ft 130 kts 57°
2026-04-28 15:52 53.66238 10.14000 3978 ft 130 kts 57°
2026-04-28 15:52 53.66701 10.15293 4314 ft 128 kts 57°
2026-04-28 15:52 53.67158 10.16564 4653 ft 128 kts 57°
2026-04-28 15:53 53.67644 10.17910 5015 ft 139 kts 57°
2026-04-28 15:53 53.68160 10.19353 5350 ft 146 kts 57°
2026-04-28 15:53 53.68725 10.20814 5697 ft 150 kts 49°
2026-04-28 15:53 53.69455 10.22093 6035 ft 152 kts 46°
2026-04-28 15:54 53.70186 10.23391 6378 ft 153 kts 46°
2026-04-28 15:54 53.70914 10.24707 6724 ft 154 kts 46°
2026-04-28 15:54 53.71642 10.26018 7045 ft 156 kts 46°
2026-04-28 15:54 53.72390 10.27365 7366 ft 159 kts 46°
2026-04-28 15:55 53.73151 10.28738 7687 ft 161 kts 45°
2026-04-28 15:55 53.73917 10.30117 8043 ft 161 kts 45°
2026-04-28 15:55 53.74682 10.31495 8424 ft 161 kts 45°
2026-04-28 15:55 53.75450 10.32885 8810 ft 162 kts 44°
2026-04-28 15:56 53.76222 10.34275 9202 ft 162 kts 44°
2026-04-28 15:56 53.76994 10.35671 9598 ft 163 kts 44°
2026-04-28 15:56 53.77772 10.37078 9997 ft 164 kts 44°
2026-04-28 15:56 53.78529 10.38457 10380 ft 154 kts 43°
2026-04-28 15:57 53.79005 10.39320 10613 ft 149 kts 43°
2026-04-28 15:57 53.79953 10.41026 11095 ft 154 kts 43°
2026-04-28 15:57 53.80696 10.42372 11472 ft 159 kts 43°
2026-04-28 15:57 53.81457 10.43756 11848 ft 162 kts 43°
2026-04-28 15:58 53.81968 10.44684 12103 ft 163 kts 43°
2026-04-28 15:58 53.82748 10.46098 12492 ft 165 kts 42°
2026-04-28 15:58 53.83535 10.47530 12881 ft 167 kts 42°
2026-04-28 15:58 53.84333 10.48980 13275 ft 169 kts 42°
2026-04-28 15:59 53.85172 10.50497 13380 ft 185 kts 42°
2026-04-28 15:59 53.86081 10.52155 13377 ft 197 kts 42°
2026-04-28 15:59 53.87030 10.53883 13379 ft 203 kts 42°
2026-04-28 15:59 53.87990 10.55635 13380 ft 203 kts 42°
2026-04-28 16:00 53.88954 10.57391 13380 ft 204 kts 42°
2026-04-28 16:00 53.89919 10.59153 13381 ft 204 kts 42°
2026-04-28 16:00 53.90886 10.60918 13378 ft 204 kts 42°
2026-04-28 16:00 53.91854 10.62686 13379 ft 204 kts 42°
2026-04-28 16:01 53.92820 10.64452 13380 ft 204 kts 43°
2026-04-28 16:01 53.93772 10.66195 13379 ft 204 kts 42°
2026-04-28 16:01 53.94751 10.67983 13380 ft 204 kts 42°
2026-04-28 16:01 53.95711 10.69718 13378 ft 204 kts 42°
2026-04-28 16:02 53.96684 10.71482 13379 ft 204 kts 42°
2026-04-28 16:02 53.97653 10.73242 13380 ft 204 kts 42°
2026-04-28 16:02 53.98624 10.75006 13379 ft 204 kts 42°
2026-04-28 16:02 53.99593 10.76769 13380 ft 204 kts 42°
2026-04-28 16:03 54.00565 10.78540 13380 ft 204 kts 42°
2026-04-28 16:03 54.01535 10.80306 13382 ft 204 kts 42°
2026-04-28 16:03 54.02502 10.82068 13382 ft 203 kts 43°
2026-04-28 16:03 54.03453 10.83803 13382 ft 203 kts 43°
2026-04-28 16:04 54.04413 10.85557 13382 ft 202 kts 43°
2026-04-28 16:04 54.05372 10.87309 13382 ft 202 kts 43°
2026-04-28 16:04 54.06332 10.89063 13384 ft 202 kts 43°
2026-04-28 16:04 54.07291 10.90819 13384 ft 202 kts 43°
2026-04-28 16:05 54.08251 10.92576 13384 ft 202 kts 43°
2026-04-28 16:05 54.09206 10.94326 13384 ft 202 kts 43°
2026-04-28 16:05 54.10150 10.96057 13384 ft 202 kts 43°
2026-04-28 16:05 54.11104 10.97808 13385 ft 202 kts 43°
2026-04-28 16:06 54.12059 10.99564 13385 ft 202 kts 43°
2026-04-28 16:06 54.13009 11.01324 13385 ft 202 kts 43°
2026-04-28 16:06 54.13962 11.03092 13385 ft 202 kts 43°
2026-04-28 16:06 54.14915 11.04855 13387 ft 202 kts 43°
2026-04-28 16:07 54.15867 11.06619 13387 ft 202 kts 43°
2026-04-28 16:07 54.16819 11.08386 13385 ft 202 kts 43°
2026-04-28 16:07 54.18724 11.11923 13384 ft 202 kts 43°
2026-04-28 16:08 54.19663 11.13670 13384 ft 202 kts 43°
2026-04-28 16:08 54.20614 11.15440 13384 ft 202 kts 43°
2026-04-28 16:08 54.21562 11.17208 13384 ft 202 kts 43°
2026-04-28 16:09 54.23459 11.20754 13402 ft 202 kts 43°
2026-04-28 16:09 54.24412 11.22538 13384 ft 203 kts 43°
2026-04-28 16:09 54.25364 11.24319 13384 ft 202 kts 43°
2026-04-28 16:10 54.27263 11.27879 13381 ft 202 kts 43°
2026-04-28 16:10 54.28211 11.29657 13381 ft 202 kts 43°
2026-04-28 16:10 54.30108 11.33220 13380 ft 202 kts 43°
2026-04-28 16:11 54.32003 11.36787 13385 ft 202 kts 43°
2026-04-28 16:11 54.33886 11.40333 13383 ft 202 kts 43°
2026-04-28 16:12 54.35778 11.43902 13380 ft 202 kts 43°
2026-04-28 16:12 54.36724 11.45691 13384 ft 202 kts 43°
2026-04-28 16:13 54.38620 11.49264 13380 ft 202 kts 43°
2026-04-28 16:13 54.39567 11.51052 13380 ft 202 kts 43°
2026-04-28 16:13 54.41451 11.54608 13381 ft 202 kts 43°
2026-04-28 16:14 54.43342 11.58185 13377 ft 202 kts 43°
2026-04-28 16:14 54.45233 11.61769 13384 ft 202 kts 43°
2026-04-28 16:15 54.47115 11.65336 13382 ft 201 kts 43°
2026-04-28 16:15 54.48055 11.67117 13387 ft 201 kts 43°
2026-04-28 16:15 54.48993 11.68896 13381 ft 200 kts 43°
2026-04-28 16:16 54.50857 11.72434 13378 ft 200 kts 43°
2026-04-28 16:16 54.51791 11.74210 13377 ft 200 kts 43°
2026-04-28 16:17 54.53660 11.77764 13377 ft 200 kts 43°
2026-04-28 16:17 54.54594 11.79545 13377 ft 200 kts 43°
2026-04-28 16:17 54.55533 11.81333 13377 ft 200 kts 43°
2026-04-28 16:17 54.56467 11.83116 13377 ft 200 kts 43°
2026-04-28 16:18 54.57388 11.84874 13377 ft 200 kts 43°
2026-04-28 16:18 54.58334 11.86681 13377 ft 200 kts 43°
2026-04-28 16:18 54.59268 11.88467 13377 ft 200 kts 43°
2026-04-28 16:18 54.60188 11.90228 13377 ft 200 kts 43°
2026-04-28 16:19 54.61124 11.92019 13384 ft 201 kts 43°
2026-04-28 16:19 54.62060 11.93814 13381 ft 201 kts 43°
2026-04-28 16:19 54.62983 11.95637 13381 ft 202 kts 44°
2026-04-28 16:19 54.63902 11.97466 13381 ft 201 kts 44°
2026-04-28 16:20 54.64823 11.99290 13381 ft 201 kts 44°
2026-04-28 16:20 54.65745 12.01114 13380 ft 201 kts 44°
2026-04-28 16:20 54.66667 12.02938 13380 ft 201 kts 44°
2026-04-28 16:20 54.67586 12.04760 13383 ft 201 kts 44°
2026-04-28 16:21 54.68489 12.06552 13383 ft 200 kts 44°
2026-04-28 16:21 54.69405 12.08369 13381 ft 200 kts 44°
2026-04-28 16:21 54.70317 12.10179 13383 ft 200 kts 44°
2026-04-28 16:21 54.71229 12.11992 13383 ft 200 kts 44°
2026-04-28 16:22 54.72140 12.13804 13382 ft 199 kts 44°
2026-04-28 16:22 54.73049 12.15615 13382 ft 200 kts 44°
2026-04-28 16:22 54.73961 12.17429 13381 ft 200 kts 44°
2026-04-28 16:22 54.74870 12.19241 13382 ft 200 kts 44°
2026-04-28 16:23 54.75780 12.21058 13384 ft 199 kts 44°
2026-04-28 16:23 54.76693 12.22880 13384 ft 199 kts 44°
2026-04-28 16:23 54.77601 12.24694 13384 ft 199 kts 44°
2026-04-28 16:23 54.78512 12.26516 13384 ft 200 kts 44°
2026-04-28 16:24 54.79408 12.28309 13384 ft 199 kts 44°
2026-04-28 16:24 54.80317 12.30129 13382 ft 199 kts 44°
2026-04-28 16:24 54.81227 12.31953 13384 ft 200 kts 44°
2026-04-28 16:24 54.82134 12.33770 13384 ft 199 kts 44°
2026-04-28 16:25 54.83043 12.35596 13380 ft 199 kts 44°
2026-04-28 16:25 54.83949 12.37416 13383 ft 200 kts 44°
2026-04-28 16:25 54.84856 12.39239 13383 ft 199 kts 44°
2026-04-28 16:25 54.85763 12.41064 13383 ft 199 kts 44°
2026-04-28 16:26 54.86670 12.42889 13383 ft 200 kts 44°
2026-04-28 16:26 54.87566 12.44693 13383 ft 199 kts 44°
2026-04-28 16:26 54.88470 12.46517 13392 ft 199 kts 44°
2026-04-28 16:26 54.89377 12.48347 13385 ft 199 kts 44°
2026-04-28 16:27 54.90277 12.50164 13385 ft 198 kts 44°
2026-04-28 16:27 54.91179 12.51986 13385 ft 198 kts 44°
2026-04-28 16:27 54.92976 12.55621 13382 ft 198 kts 44°
2026-04-28 16:28 54.93874 12.57440 13382 ft 198 kts 44°
2026-04-28 16:28 54.94468 12.58643 13382 ft 198 kts 44°
2026-04-28 16:28 54.95670 12.61079 13381 ft 198 kts 44°
2026-04-28 16:28 54.96567 12.62901 13381 ft 198 kts 44°
2026-04-28 16:29 54.98358 12.66541 13382 ft 199 kts 44°
2026-04-28 16:29 55.00163 12.70214 13381 ft 199 kts 44°
2026-04-28 16:30 55.01042 12.72090 13378 ft 202 kts 51°
2026-04-28 16:30 55.01541 12.74412 13368 ft 211 kts 74°
2026-04-28 16:30 55.01612 12.76997 13363 ft 214 kts 82°
2026-04-28 16:30 55.01643 12.79594 13364 ft 214 kts 82°
2026-04-28 16:31 55.01736 12.82173 13365 ft 213 kts 79°
2026-04-28 16:31 55.01813 12.84762 13365 ft 214 kts 81°
2026-04-28 16:31 55.01888 12.87343 13365 ft 213 kts 80°
2026-04-28 16:31 55.01969 12.89927 13365 ft 213 kts 80°
2026-04-28 16:32 55.02052 12.92478 13365 ft 213 kts 80°
2026-04-28 16:32 55.02217 12.97646 13365 ft 213 kts 80°
2026-04-28 16:32 55.02298 13.00235 13362 ft 213 kts 80°
2026-04-28 16:33 55.02379 13.02813 13365 ft 213 kts 80°
2026-04-28 16:33 55.02407 13.03685 13362 ft 213 kts 80°
2026-04-28 16:33 55.02540 13.07980 13362 ft 213 kts 80°
2026-04-28 16:33 55.02620 13.10570 13362 ft 213 kts 80°
2026-04-28 16:34 55.02699 13.13159 13362 ft 213 kts 80°
2026-04-28 16:34 55.02778 13.15735 13362 ft 213 kts 80°
2026-04-28 16:34 55.02855 13.18319 13361 ft 213 kts 80°
2026-04-28 16:34 55.02933 13.20905 13361 ft 213 kts 80°
2026-04-28 16:35 55.03010 13.23487 13370 ft 214 kts 80°
2026-04-28 16:35 55.03086 13.26082 13371 ft 214 kts 80°
2026-04-28 16:35 55.03162 13.28668 13371 ft 214 kts 81°
2026-04-28 16:35 55.03238 13.31254 13371 ft 214 kts 80°
2026-04-28 16:36 55.03330 13.33811 13371 ft 213 kts 79°
2026-04-28 16:36 55.03414 13.36399 13371 ft 214 kts 80°
2026-04-28 16:36 55.03486 13.38986 13371 ft 214 kts 81°
2026-04-28 16:36 55.03558 13.41573 13370 ft 214 kts 81°
2026-04-28 16:37 55.03629 13.44170 13370 ft 214 kts 81°
2026-04-28 16:37 55.03701 13.46757 13370 ft 214 kts 81°
2026-04-28 16:37 55.03776 13.49348 13374 ft 214 kts 80°
2026-04-28 16:38 55.03912 13.54527 13374 ft 213 kts 80°
2026-04-28 16:38 55.03981 13.57114 13373 ft 213 kts 80°
2026-04-28 16:38 55.04050 13.59695 13373 ft 213 kts 80°
2026-04-28 16:38 55.04119 13.62281 13373 ft 213 kts 80°
2026-04-28 16:39 55.04185 13.64845 13373 ft 213 kts 80°
2026-04-28 16:39 55.04252 13.67431 13373 ft 213 kts 80°
2026-04-28 16:39 55.04319 13.70012 13373 ft 213 kts 80°
2026-04-28 16:39 55.04385 13.72598 13372 ft 213 kts 80°
2026-04-28 16:40 55.04450 13.75190 13372 ft 213 kts 80°
2026-04-28 16:40 55.04515 13.77776 13372 ft 213 kts 80°
2026-04-28 16:40 55.04580 13.80359 13377 ft 214 kts 79°
2026-04-28 16:40 55.04646 13.82963 13373 ft 214 kts 79°
2026-04-28 16:41 55.04704 13.85512 13372 ft 210 kts 79°
2026-04-28 16:41 55.04761 13.88022 13368 ft 204 kts 79°
2026-04-28 16:41 55.04817 13.90422 13359 ft 193 kts 78°
2026-04-28 16:41 55.04873 13.92726 13340 ft 187 kts 78°
2026-04-28 16:42 55.04932 13.95042 13067 ft 194 kts 78°
2026-04-28 16:42 55.04988 13.97417 12803 ft 198 kts 79°
2026-04-28 16:42 55.05044 13.99824 12544 ft 199 kts 79°
2026-04-28 16:42 55.05100 14.02240 12287 ft 200 kts 79°
2026-04-28 16:43 55.05154 14.04641 12034 ft 200 kts 79°
2026-04-28 16:43 55.05209 14.07060 11779 ft 199 kts 79°
2026-04-28 16:43 55.05263 14.09467 11526 ft 198 kts 79°
2026-04-28 16:43 55.05317 14.11868 11273 ft 197 kts 79°
2026-04-28 16:44 55.05369 14.14254 11028 ft 197 kts 79°
2026-04-28 16:44 55.05421 14.16628 10780 ft 196 kts 79°
2026-04-28 16:44 55.05472 14.18996 10533 ft 194 kts 79°
2026-04-28 16:44 55.05506 14.20549 10371 ft 193 kts 79°
2026-04-28 16:45 55.05552 14.22858 10108 ft 188 kts 79°
2026-04-28 16:45 55.05599 14.25111 9832 ft 185 kts 79°
2026-04-28 16:45 55.05647 14.27342 9555 ft 183 kts 79°
2026-04-28 16:45 55.05708 14.30257 9199 ft 181 kts 79°
2026-04-28 16:46 55.05738 14.31736 9018 ft 180 kts 80°
2026-04-28 16:46 55.05783 14.33915 8752 ft 179 kts 80°
2026-04-28 16:46 55.05826 14.36085 8488 ft 179 kts 80°
2026-04-28 16:46 55.05882 14.38241 8244 ft 178 kts 79°
2026-04-28 16:47 55.05917 14.40398 7985 ft 178 kts 79°
2026-04-28 16:47 55.05954 14.42544 7728 ft 177 kts 79°
2026-04-28 16:47 55.05996 14.44686 7474 ft 176 kts 79°
2026-04-28 16:47 55.06038 14.46816 7221 ft 176 kts 80°
2026-04-28 16:48 55.06075 14.48891 6937 ft 172 kts 80°
2026-04-28 16:48 55.06116 14.50973 6600 ft 171 kts 80°
2026-04-28 16:48 55.06155 14.53039 6253 ft 170 kts 81°
2026-04-28 16:48 55.06193 14.55084 5910 ft 168 kts 81°
2026-04-28 16:49 55.06233 14.57108 5571 ft 165 kts 79°
2026-04-28 16:49 55.06663 14.58825 5230 ft 152 kts 38°
2026-04-28 16:49 55.07562 14.59711 4890 ft 148 kts 22°
2026-04-28 16:49 55.08501 14.60442 4546 ft 148 kts 22°
2026-04-28 16:50 55.09453 14.61158 4204 ft 150 kts 22°
2026-04-28 16:50 55.10414 14.61867 3866 ft 151 kts 22°
2026-04-28 16:50 55.11389 14.62562 3529 ft 152 kts 22°
2026-04-28 16:50 55.12401 14.63090 3184 ft 154 kts
2026-04-28 16:51 55.13365 14.62336 2949 ft 156 kts 314°
2026-04-28 16:51 55.13846 14.60655 2816 ft 154 kts 295°
2026-04-28 16:51 55.14265 14.58984 2680 ft 151 kts 296°
2026-04-28 16:51 55.14690 14.57322 2543 ft 149 kts 296°
2026-04-28 16:52 55.15113 14.55673 2414 ft 149 kts 296°
2026-04-28 16:52 55.15540 14.54031 2283 ft 147 kts 296°
2026-04-28 16:52 55.15775 14.52332 2139 ft 146 kts 260°
2026-04-28 16:52 55.15221 14.50920 1967 ft 143 kts 208°
2026-04-28 16:53 55.14287 14.50593 1805 ft 137 kts 168°
2026-04-28 16:53 55.13358 14.50924 1658 ft 136 kts 160°
2026-04-28 16:53 55.12508 14.51571 1582 ft 130 kts 143°
2026-04-28 16:53 55.12077 14.52837 1578 ft 121 kts 107°
2026-04-28 16:54 55.11773 14.54184 1571 ft 118 kts 112°
2026-04-28 16:54 55.11464 14.55500 1568 ft 116 kts 112°
2026-04-28 16:54 55.11158 14.56772 1570 ft 114 kts 114°
2026-04-28 16:54 55.10843 14.58032 1570 ft 112 kts 113°
2026-04-28 16:55 55.10528 14.59272 1569 ft 110 kts 113°
2026-04-28 16:55 55.10224 14.60487 1570 ft 109 kts 112°
2026-04-28 16:55 55.09915 14.61704 1570 ft 109 kts 114°
2026-04-28 16:55 55.09608 14.62934 1535 ft 113 kts 113°
2026-04-28 16:56 55.09278 14.64247 1389 ft 123 kts 114°
2026-04-28 16:56 55.08922 14.65667 1209 ft 130 kts 115°
2026-04-28 16:56 55.08551 14.67119 1022 ft 133 kts 115°
2026-04-28 16:56 55.08222 14.68445 844 ft 128 kts 115°
2026-04-28 16:57 55.07874 14.69784 664 ft 117 kts 115°
2026-04-28 16:57 55.07576 14.71023 511 ft 105 kts 116°
2026-04-28 16:57 55.07288 14.72131 387 ft 93 kts 117°
2026-04-28 16:57 55.07057 14.73069 257 ft 73 kts 115°
2026-04-28 16:58 55.06860 14.73841 140 ft 70 kts 116°
2026-04-28 16:58 55.06664 14.74626 52 ft 65 kts 115°
2026-04-28 16:58 55.06518 14.75197 48 ft 36 kts 114°
2026-04-28 16:58 55.06494 14.75347 48 ft 8 kts 15°
2026-04-28 16:59 55.06596 14.75425 48 ft 20 kts 25°
2026-04-28 16:59 55.06695 14.75424 48 ft 15 kts 314°
2026-04-28 16:59 55.06759 14.75195 48 ft 25 kts 294°
2026-04-28 16:59 55.06831 14.74919 48 ft 24 kts 295°
2026-04-28 17:00 55.06866 14.74781 48 ft 10 kts 293°
2026-04-28 17:00 55.06894 14.74741 48 ft 5 kts
2026-04-28 17:00 55.06937 14.74772 48 ft 9 kts 24°
2026-04-28 17:00 55.06993 14.74816 48 ft 6 kts 24°
2026-04-28 17:01 55.07023 14.74770 48 ft 9 kts 291°
2026-04-28 17:01 55.07059 14.74766 48 ft 7 kts 26°
2026-04-28 17:01 55.07076 14.74735 48 ft 7 kts 204°
2026-04-28 17:01 55.07062 14.74722 48 ft 0 kts 209°